Regional Weather Roundup
Issued by NWS

Home | Current Version | Previous Version | Graphics & Text | Print | Product List | Glossary On
Versions: 1 2 3 4 5 6 7 8 9 10 11 12 13 14 15 16 17 18 19 20 21 22 23 24 25 26 27 28 29 30 31 32 33 34 35 36 37 38 39 40 41 42 43 44 45 46 47 48 49 50
000
ASUS43 KLOT 051613
RWRIL

ILLINOIS REGIONAL WEATHER ROUNDUP
NATIONAL WEATHER SERVICE CHICAGO/ROMEOVILLE IL
1100 AM CDT SAT SEP 05 2015

NOTE: "FAIR" INDICATES FEW OR NO CLOUDS BELOW 12,000 FEET WITH NO
SIGNIFICANT WEATHER AND/OR OBSTRUCTIONS TO VISIBILITY.

* THESE STATIONS ARE NOT UNDER NWS QUALITY CONTROL. THEY ALSO MAY NOT
  REPORT WEATHER SUCH AS PRECIPITATION OR FOG.

ILZ001-002-007-009-015-016-024-051700-
NORTHWEST ILLINOIS

CITY           SKY/WX    TMP DP  RH WIND       PRES   REMARKS
MOLINE         PTSUNNY   83  71  67 SW3       30.08R HX  87
STERLING*      CLOUDY    79  72  78 SW3       30.08R HX  82
SAVANNA*       PTSUNNY   80  70  72 S3        30.08F HX  83
$$

ILZ003-004-008-010-011-017-018-051700-
NORTH CENTRAL ILLINOIS

CITY           SKY/WX    TMP DP  RH WIND       PRES   REMARKS
ROCKFORD       CLOUDY    77  71  82 S6        30.11R
FREEPORT*      CLOUDY    73  71  92 S7        30.11S
ROCHELLE*      LGT RAIN  76  73  90 S6        30.12R
DE KALB*       CLOUDY    79  71  78 SW6       30.13R HX  82
PERU*          TSTM      76  70  82 S6        30.11S
$$

ILZ005-006-012>014-019>023-051700-
NORTHEAST ILLINOIS

CITY           SKY/WX    TMP DP  RH WIND       PRES   REMARKS
CHICAGO-OHARE  PTSUNNY   76  68  76 SE15      30.12R
CHICAGO-MIDWAY CLOUDY    76  66  71 S8        30.13R
AURORA         CLOUDY    79  68  69 S15G21    30.12S HX  81
LANSING*       LGT RAIN  70  67  89 SE6       30.13F
JOLIET*        CLOUDY    78  71  77 S8        30.13S HX  81
WAUKEGAN       MOSUNNY   81  72  74 S7        30.10R HX  85
DUPAGE AIRPORT PTSUNNY   82  69  64 S7        30.11S HX  85
KANKAKEE*      PTSUNNY   77  66  69 CALM      30.12S
WHEELING       NOT AVBL
MORRIS*        CLOUDY    75  69  81 S15       30.12S THUNDER
ROMEOVILLE*    LGT RAIN  74  69  86 SW12      30.12S
NORTHERLY ISL    N/A     72  64  76 S5          N/A
$$

LMZ740>746-051700-
SOUTHERN LAKE MICHIGAN

STATION/POSITION SKY/WX   TEMP    WIND        PRES    VSBY  WAVE
                          AIR SEA DIR/SP/G                  HT/PER
                          (F)     (DEG/KT/KT) (MB)    (MI)  (FT/S)
SOUTHERN BUOY              72 71  170/ 14/ 17 1019.6R         1/ 2
WILMETTE HARBOR            72 71  320/ 10/ 14   N/A           1/ 3
HARRISON CRIB              72     140/ 19/ 24   N/A
BURNHAM HARBOR             72      90/ 11       N/A
CALUMET HARBOR             70     140/ 10/ 17   N/A
BURNS HARBOR               68      60/ 11/ 13 1022.4R
MICHIGAN CITY              69     130/  7/  9   N/A
MICHIGAN CITY 6N           72 73  220/  6/ 12   N/A           3/ 4
ST. JOSEPH                 71 72  230/  8/ 14   N/A           1/ 3
$$

ILZ025>027-034>036-040-047-049-050-058-095>099-051700-
WEST-CENTRAL ILLINOIS

CITY           SKY/WX    TMP DP  RH WIND       PRES   REMARKS
QUINCY         SUNNY     87  70  56 S7        30.09S HX  92
GALESBURG*     MOSUNNY   85  71  64 SW6       30.10R HX  90
MACOMB*        SUNNY     88  67  49 SW6       30.12R HX  91
JACKSONVILLE*  SUNNY     90  70  52 S10       30.10S HX  95
PITTSFIELD*    SUNNY     88  70  54 SW8       30.12R HX  92
$$

ILZ028>032-037-038-041>044-048-051>054-059>061-051700-
CENTRAL ILLINOIS

CITY           SKY/WX    TMP DP  RH WIND       PRES   REMARKS
PONTIAC        PTSUNNY   82  69  65 S8        30.14R HX  85
BLOOMINGTON    PTSUNNY   85  72  65 S7        30.13F HX  91
DECATUR        MOSUNNY   88  70  55 CALM      30.13S HX  93
PEORIA         PTSUNNY   83  70  64 S6        30.11R HX  87
LACON*         CLOUDY    79  69  72 S6        30.09F HX  82
LINCOLN*       MOSUNNY   89  68  49 SW5       30.10S HX  93
SPRINGFIELD    SUNNY     89  71  55 VRB7      30.11F HX  95
TAYLORVILLE    SUNNY     86  70  58 S5        30.12F HX  90
$$

ILZ033-039-045-046-055>057-062-063-051700-
EAST-CENTRAL ILLINOIS

CITY           SKY/WX    TMP DP  RH WIND       PRES   REMARKS
CHAMPAIGN      MOSUNNY   82  71  69 E6        30.14F HX  86
RANTOUL*       MOSUNNY   80  67  65 SE12      30.13F HX  83
MATTOON        MOSUNNY   85  68  56 CALM      30.13S HX  88
PARIS*         MOSUNNY   76  71  84 NE10      30.16S
$$

ILZ079-100>102-051700-
SOUTHWEST ILLINOIS

CITY           SKY/WX    TMP DP  RH WIND       PRES   REMARKS
ALTON          SUNNY     86  70  58 S6        30.12S HX  90
BELLEVILLE     SUNNY     87  72  61 E6        30.11S HX  93
CAHOKIA*       SUNNY     89  70  53 S3        30.11R HX  94
SPARTA*        SUNNY     85  72  66 SE3       30.13S HX  91
$$

ILZ064>066-069>071-074>076-080>082-084>086-088>090-092>094-051700-
SOUTH-CENTRAL ILLINOIS

CITY           SKY/WX    TMP DP  RH WIND       PRES   REMARKS
CARBONDALE     SUNNY     87  70  56 E3        30.12R HX  92
CAIRO*         SUNNY     85  76  74 CALM      30.10S HX  94
EFFINGHAM*     SUNNY     86  66  51 CALM      30.16R HX  88
MARION         PTSUNNY   90  70  51 CALM      30.13S HX  95
MT. VERNON     SUNNY     88  70  55 CALM      30.14S HX  92
CENTRALIA*     SUNNY     88  71  58 SE3       30.12S HX  93
SALEM*         SUNNY     87  70  55 E3        30.13S HX  92
METROPOLIS*    SUNNY     89  75  63 CALM      30.12S HX  98
$$

ILZ067-068-072-073-078-083-087-091-051700-
SOUTHEAST ILLINOIS

CITY           SKY/WX    TMP DP  RH WIND       PRES   REMARKS
LAWRENCEVILLE  MOSUNNY   87  68  52 CALM      30.14S HX  90
FLORA*         MOSUNNY   88  67  48 SE6       30.13S HX  90
FAIRFIELD*     SUNNY     87  69  55 S3        30.12S HX  92
HARRISBURG*    SUNNY     89  71  55 NE3       30.12S HX  94
ROBINSON*      MOSUNNY   86  70  58 S3        30.15S HX  90
CARMI*         SUNNY     86  71  61 SW3       30.12F HX  91
$$

ABBREVIATIONS USED IN REMARKS
   TC - TEMPERATURE IN CELSIUS
  WCI - WIND CHILL INDEX
   HX - HEAT INDEX
  VSB - VISIBILITY
$$



USA.gov is the U.S. government's official web portal to all federal, state and local government web resources and services.